NG87HG BGGH-EDDM

Flight info

Callsign NG87HG
Flight time 4h 48m
Altitude 37000
Route EVULO1A EVULO DCT 63N038W 62N027W 59N018W DCT GOMUP/N0458F370 DCT AMCON/N0453F390 DCT BELOX L603 BUKUT DCT LAMSO DCT OTMEC DCT DOJOH DCT DKB T104 LEVBU
Aircraft B737/M-SDE2E3FGHIRWXY/LB1

Departure

Time 2026-05-08 20:40
Airport Nuuk International Airport (BGGH)

Arrival

Time 2026-05-09 01:28
Airport Munich Airport (EDDM)
Time Latitude Longitude Altitude Speed Heading
2026-05-08 20:15 64.19124 -51.67525 279 ft 0 kts 253°
2026-05-08 20:34 64.19124 -51.67526 302 ft 0 kts 253°
2026-05-08 20:34 64.19108 -51.67580 271 ft 4 kts 219°
2026-05-08 20:35 64.19077 -51.67616 279 ft 6 kts 218°
2026-05-08 20:35 64.19083 -51.67708 279 ft 7 kts 288°
2026-05-08 20:35 64.19076 -51.67813 282 ft 7 kts 219°
2026-05-08 20:35 64.19027 -51.67854 279 ft 7 kts 200°
2026-05-08 20:36 64.18981 -51.67900 279 ft 8 kts 208°
2026-05-08 20:36 64.18938 -51.67979 279 ft 9 kts 231°
2026-05-08 20:36 64.18883 -51.68078 277 ft 12 kts 199°
2026-05-08 20:36 64.18795 -51.68143 274 ft 15 kts 197°
2026-05-08 20:37 64.18684 -51.68222 271 ft 18 kts 197°
2026-05-08 20:37 64.18558 -51.68317 268 ft 19 kts 199°
2026-05-08 20:37 64.18423 -51.68416 264 ft 22 kts 197°
2026-05-08 20:37 64.18277 -51.68513 256 ft 19 kts 187°
2026-05-08 20:38 64.18181 -51.68518 255 ft 11 kts 204°
2026-05-08 20:38 64.18160 -51.68554 253 ft 5 kts 231°
2026-05-08 20:38 64.18170 -51.68608 252 ft 2 kts 347°
2026-05-08 20:38 64.18180 -51.68600 253 ft 0 kts 18°
2026-05-08 20:39 64.18368 -51.68457 261 ft 74 kts 17°
2026-05-08 20:39 64.19145 -51.67872 295 ft 156 kts 21°
2026-05-08 20:39 64.20382 -51.66993 448 ft 216 kts 13°
2026-05-08 20:40 64.21998 -51.67327 918 ft 258 kts 338°
2026-05-08 20:40 64.23752 -51.69011 1664 ft 277 kts 332°
2026-05-08 20:40 64.25152 -51.71937 2868 ft 278 kts 296°
2026-05-08 20:40 64.25692 -51.76223 3304 ft 285 kts 258°
2026-05-08 20:41 64.25068 -51.80456 3732 ft 280 kts 212°
2026-05-08 20:41 64.23298 -51.80781 4332 ft 270 kts 162°
2026-05-08 20:41 64.21521 -51.79778 5894 ft 250 kts 168°
2026-05-08 20:41 64.19882 -51.79163 7627 ft 227 kts 172°
2026-05-08 20:42 64.18336 -51.78586 8760 ft 230 kts 169°
2026-05-08 20:42 64.16696 -51.77614 9094 ft 254 kts 171°
2026-05-08 20:42 64.14895 -51.76821 9650 ft 269 kts 168°
2026-05-08 20:42 64.13056 -51.76003 10424 ft 276 kts 168°
2026-05-08 20:43 64.11190 -51.74180 10616 ft 307 kts 154°
2026-05-08 20:43 64.09304 -51.71632 11234 ft 319 kts 151°
2026-05-08 20:43 64.07434 -51.68738 12031 ft 328 kts 142°
2026-05-08 20:43 64.05988 -51.64605 12929 ft 343 kts 124°
2026-05-08 20:44 64.05139 -51.59406 13802 ft 358 kts 108°
2026-05-08 20:44 64.05016 -51.53607 14590 ft 378 kts 88°
2026-05-08 20:44 64.05642 -51.47709 15416 ft 386 kts 81°
2026-05-08 20:44 64.06416 -51.41791 16203 ft 391 kts 79°
2026-05-08 20:45 64.07212 -51.35824 16913 ft 396 kts 79°
2026-05-08 20:45 64.07734 -51.31809 17398 ft 399 kts 80°
2026-05-08 20:45 64.08761 -51.23614 18359 ft 404 kts 81°
2026-05-08 20:45 64.09560 -51.17413 18994 ft 412 kts 76°
2026-05-08 20:46 64.10871 -51.11446 19563 ft 426 kts 65°
2026-05-08 20:46 64.12429 -51.05625 20149 ft 432 kts 63°
2026-05-08 20:46 64.14048 -50.99776 20730 ft 438 kts 63°
2026-05-08 20:46 64.15684 -50.93845 21333 ft 443 kts 63°
2026-05-08 20:47 64.17326 -50.87803 21915 ft 448 kts 63°
2026-05-08 20:47 64.18965 -50.81671 22482 ft 454 kts 63°
2026-05-08 20:47 64.20608 -50.75442 23025 ft 459 kts 64°
2026-05-08 20:47 64.22261 -50.69124 23521 ft 464 kts 64°
2026-05-08 20:48 64.23925 -50.62732 23980 ft 468 kts 63°
2026-05-08 20:48 64.25603 -50.56263 24405 ft 473 kts 63°
2026-05-08 20:48 64.27293 -50.49734 24854 ft 477 kts 63°
2026-05-08 20:48 64.28999 -50.43132 25254 ft 481 kts 63°
2026-05-08 20:49 64.30711 -50.36487 25706 ft 484 kts 63°
2026-05-08 20:49 64.32431 -50.29788 26089 ft 489 kts 63°
2026-05-08 20:49 64.34171 -50.23003 26469 ft 493 kts 63°
2026-05-08 20:49 64.35920 -50.16149 26841 ft 497 kts 63°
2026-05-08 20:50 64.37444 -50.09119 27200 ft 494 kts 77°
2026-05-08 20:50 64.38121 -50.01427 27588 ft 485 kts 93°
2026-05-08 20:50 64.37944 -49.93653 27975 ft 476 kts 105°
2026-05-08 20:50 64.37426 -49.86199 28300 ft 478 kts 107°
2026-05-08 20:51 64.36832 -49.78506 28551 ft 482 kts 107°
2026-05-08 20:51 64.36234 -49.70951 28843 ft 487 kts 107°
2026-05-08 20:51 64.35630 -49.63238 29245 ft 489 kts 107°
2026-05-08 20:51 64.35040 -49.55516 29755 ft 489 kts 107°
2026-05-08 20:52 64.34462 -49.47785 30228 ft 488 kts 107°
2026-05-08 20:52 64.33890 -49.40067 30598 ft 488 kts 107°
2026-05-08 20:52 64.33318 -49.32344 30976 ft 488 kts 107°
2026-05-08 20:52 64.32742 -49.24628 31257 ft 490 kts 108°
2026-05-08 20:53 64.32155 -49.16843 31448 ft 494 kts 108°
2026-05-08 20:53 64.31565 -49.09041 31823 ft 494 kts 108°
2026-05-08 20:53 64.30975 -49.01257 32275 ft 492 kts 108°
2026-05-08 20:53 64.30384 -48.93515 32671 ft 491 kts 109°
2026-05-08 20:54 64.29786 -48.85767 32999 ft 492 kts 109°
2026-05-08 20:54 64.29180 -48.78008 33276 ft 493 kts 109°
2026-05-08 20:54 64.28569 -48.70240 33616 ft 493 kts 109°
2026-05-08 20:54 64.27957 -48.62500 33953 ft 492 kts 109°
2026-05-08 20:55 64.27341 -48.54769 34235 ft 491 kts 109°
2026-05-08 20:55 64.26721 -48.47031 34525 ft 491 kts 109°
2026-05-08 20:55 64.26099 -48.39329 34768 ft 490 kts 109°
2026-05-08 20:56 64.24685 -48.23889 34875 ft 499 kts 109°
2026-05-08 20:56 64.23557 -48.07948 35241 ft 504 kts 107°
2026-05-08 20:56 64.22940 -48.00051 35602 ft 500 kts 108°
2026-05-08 20:57 64.22281 -47.92235 35953 ft 497 kts 109°
2026-05-08 20:57 64.21601 -47.84468 36214 ft 496 kts 109°
2026-05-08 20:57 64.20911 -47.76692 36410 ft 497 kts 109°
2026-05-08 20:57 64.20223 -47.68922 36642 ft 497 kts 109°
2026-05-08 20:58 64.19538 -47.61161 36924 ft 496 kts 109°
2026-05-08 20:58 64.18857 -47.53415 37188 ft 495 kts 109°
2026-05-08 20:58 64.18176 -47.45674 37314 ft 496 kts 109°
2026-05-08 20:59 64.16789 -47.30052 37515 ft 501 kts 109°
2026-05-08 20:59 64.16093 -47.22254 37807 ft 499 kts 109°
2026-05-08 20:59 64.15397 -47.14483 38098 ft 497 kts 109°
2026-05-08 20:59 64.14699 -47.06751 38384 ft 495 kts 109°
2026-05-08 21:00 64.13998 -46.99043 38603 ft 494 kts 109°
2026-05-08 21:00 64.13292 -46.91348 38731 ft 494 kts 109°
2026-05-08 21:00 64.12589 -46.83744 38849 ft 495 kts 109°
2026-05-08 21:01 64.11141 -46.68260 38908 ft 501 kts 108°
2026-05-08 21:01 64.09658 -46.52575 38894 ft 507 kts 108°
2026-05-08 21:02 64.08147 -46.36750 38921 ft 512 kts 108°
2026-05-08 21:02 64.06608 -46.20822 38921 ft 514 kts 108°
2026-05-08 21:03 64.05047 -46.04863 38913 ft 515 kts 108°
2026-05-08 21:03 64.03469 -45.88922 38915 ft 514 kts 109°
2026-05-08 21:04 64.01877 -45.73044 38921 ft 513 kts 109°
2026-05-08 21:04 64.00272 -45.57236 38934 ft 511 kts 109°
2026-05-08 21:05 63.98927 -45.44143 38929 ft 510 kts 109°
2026-05-08 21:05 63.97297 -45.28434 38937 ft 509 kts 109°
2026-05-08 21:06 63.95601 -45.12816 38956 ft 508 kts 110°
2026-05-08 21:06 63.93914 -44.97193 38964 ft 509 kts 108°
2026-05-08 21:07 63.92288 -44.81548 38970 ft 509 kts 108°
2026-05-08 21:07 63.90621 -44.65918 38991 ft 510 kts 109°
2026-05-08 21:08 63.88911 -44.50286 39042 ft 511 kts 109°
2026-05-08 21:08 63.87170 -44.34625 39041 ft 512 kts 109°
2026-05-08 21:09 63.85411 -44.18966 39039 ft 513 kts 109°
2026-05-08 21:09 63.83635 -44.03314 39062 ft 513 kts 109°
2026-05-08 21:10 63.81821 -43.87677 39063 ft 514 kts 110°
2026-05-08 21:10 63.80003 -43.72006 39097 ft 515 kts 110°
2026-05-08 21:11 63.78181 -43.56321 39103 ft 516 kts 110°
2026-05-08 21:11 63.76331 -43.40616 39119 ft 517 kts 110°
2026-05-08 21:12 63.74469 -43.25033 39121 ft 517 kts 110°
2026-05-08 21:12 63.72575 -43.09363 39117 ft 517 kts 113°
2026-05-08 21:13 63.70624 -42.93738 39166 ft 519 kts 112°
2026-05-08 21:13 63.68666 -42.78060 39191 ft 521 kts 110°
2026-05-08 21:14 63.66744 -42.62294 39194 ft 523 kts 110°
2026-05-08 21:14 63.64782 -42.46512 39227 ft 523 kts 111°
2026-05-08 21:15 63.62783 -42.30759 39216 ft 524 kts 111°
2026-05-08 21:15 63.60658 -42.15103 39239 ft 524 kts 114°
2026-05-08 21:16 63.58671 -41.99246 39280 ft 529 kts 109°
2026-05-08 21:16 63.56696 -41.83345 39271 ft 530 kts 111°
2026-05-08 21:17 63.54573 -41.67498 39300 ft 531 kts 111°
2026-05-08 21:17 63.52425 -41.51666 39288 ft 530 kts 111°
2026-05-08 21:18 63.50245 -41.35892 39304 ft 529 kts 110°
2026-05-08 21:18 63.47958 -41.20243 39286 ft 531 kts 107°
2026-05-08 21:19 63.46119 -41.04282 39309 ft 530 kts 108°
2026-05-08 21:19 63.43954 -40.88580 39312 ft 528 kts 111°
2026-05-08 21:20 63.41654 -40.72999 39331 ft 528 kts 112°
2026-05-08 21:20 63.39383 -40.57359 39296 ft 531 kts 111°
2026-05-08 21:21 63.37135 -40.41644 39313 ft 532 kts 110°
2026-05-08 21:21 63.34893 -40.26023 39314 ft 534 kts 111°
2026-05-08 21:22 63.32609 -40.10278 39298 ft 535 kts 111°
2026-05-08 21:22 63.30303 -39.94553 39296 ft 535 kts 111°
2026-05-08 21:23 63.27976 -39.78842 39265 ft 535 kts 111°
2026-05-08 21:23 63.25636 -39.63174 39290 ft 534 kts 110°
2026-05-08 21:24 63.23279 -39.47540 39277 ft 534 kts 111°
2026-05-08 21:24 63.20906 -39.31933 39310 ft 534 kts 111°
2026-05-08 21:25 63.18511 -39.16322 39296 ft 536 kts 111°
2026-05-08 21:25 63.16091 -39.00692 39279 ft 538 kts 111°
2026-05-08 21:26 63.13649 -38.85047 39274 ft 538 kts 111°
2026-05-08 21:26 63.11185 -38.69401 39277 ft 539 kts 111°
2026-05-08 21:27 63.08702 -38.53764 39272 ft 540 kts 111°
2026-05-08 21:27 63.06201 -38.38153 39270 ft 540 kts 111°
2026-05-08 21:28 63.03682 -38.22561 39266 ft 540 kts 111°
2026-05-08 21:28 63.01149 -38.07002 39267 ft 539 kts 111°
2026-05-08 21:29 62.99371 -37.91015 39292 ft 538 kts 95°
2026-05-08 21:29 62.98583 -37.74626 39277 ft 539 kts 94°
2026-05-08 21:30 62.97826 -37.58199 39284 ft 541 kts 94°
2026-05-08 21:30 62.96993 -37.41760 39280 ft 541 kts 95°
2026-05-08 21:31 62.96102 -37.25319 39290 ft 542 kts 95°
2026-05-08 21:31 62.95188 -37.08989 39287 ft 542 kts 95°
2026-05-08 21:32 62.94253 -36.92563 39292 ft 542 kts 95°
2026-05-08 21:32 62.93301 -36.76126 39297 ft 543 kts 95°
2026-05-08 21:33 62.92328 -36.59659 39301 ft 544 kts 95°
2026-05-08 21:33 62.91336 -36.43190 39310 ft 545 kts 95°
2026-05-08 21:34 62.90321 -36.26698 39307 ft 545 kts 96°
2026-05-08 21:34 62.89288 -36.10229 39295 ft 545 kts 95°
2026-05-08 21:35 62.88235 -35.93770 39310 ft 545 kts 95°
2026-05-08 21:35 62.87165 -35.77342 39322 ft 545 kts 95°
2026-05-08 21:36 62.86075 -35.60912 39322 ft 545 kts 95°
2026-05-08 21:36 62.84966 -35.44489 39320 ft 545 kts 95°
2026-05-08 21:37 62.83836 -35.28071 39321 ft 546 kts 95°
2026-05-08 21:37 62.82687 -35.11659 39332 ft 546 kts 96°
2026-05-08 21:38 62.81520 -34.95272 39331 ft 545 kts 95°
2026-05-08 21:38 62.80334 -34.78903 39370 ft 545 kts 95°
2026-05-08 21:39 62.79129 -34.62546 39344 ft 545 kts 95°
2026-05-08 21:39 62.77906 -34.46214 39343 ft 545 kts 95°
2026-05-08 21:40 62.76665 -34.29899 39350 ft 544 kts 96°
2026-05-08 21:40 62.75405 -34.13612 39349 ft 544 kts 96°
2026-05-08 21:41 62.73482 -33.89226 39359 ft 543 kts 95°
2026-05-08 21:41 62.72178 -33.72999 39386 ft 543 kts 95°
2026-05-08 21:42 62.70855 -33.56795 39375 ft 543 kts 95°
2026-05-08 21:42 62.69514 -33.40605 39364 ft 542 kts 95°
2026-05-08 21:43 62.68167 -33.24573 39375 ft 542 kts 96°
2026-05-08 21:43 62.66790 -33.08431 39372 ft 542 kts 96°
2026-05-08 21:44 62.65397 -32.92324 39375 ft 542 kts 95°
2026-05-08 21:44 62.63986 -32.76249 39379 ft 541 kts 95°
2026-05-08 21:45 62.62558 -32.60200 39385 ft 540 kts 96°
2026-05-08 21:45 62.61118 -32.44248 39375 ft 537 kts 96°
2026-05-08 21:46 62.59666 -32.28366 39384 ft 535 kts 96°
2026-05-08 21:46 62.58201 -32.12540 39386 ft 534 kts 96°
2026-05-08 21:47 62.56720 -31.96760 39399 ft 534 kts 96°
2026-05-08 21:47 62.55224 -31.81019 39397 ft 533 kts 96°
2026-05-08 21:48 62.53711 -31.65302 39396 ft 533 kts 96°
2026-05-08 21:48 62.52180 -31.49600 39403 ft 533 kts 96°
2026-05-08 21:49 62.50631 -31.33909 39408 ft 533 kts 96°
2026-05-08 21:49 62.49063 -31.18226 39415 ft 534 kts 96°
2026-05-08 21:50 62.47477 -31.02548 39408 ft 534 kts 97°
2026-05-08 21:50 62.45871 -30.86878 39415 ft 534 kts 96°
2026-05-08 21:51 62.44250 -30.71238 39443 ft 533 kts 97°
2026-05-08 21:51 62.42613 -30.55637 39418 ft 532 kts 97°
2026-05-08 21:52 62.40966 -30.40118 39417 ft 530 kts 97°
2026-05-08 21:52 62.39587 -30.27265 39426 ft 529 kts 97°
2026-05-08 21:53 62.37918 -30.11853 39423 ft 528 kts 97°
2026-05-08 21:53 62.36233 -29.96472 39434 ft 527 kts 97°
2026-05-08 21:54 62.34534 -29.81140 39433 ft 526 kts 97°
2026-05-08 21:54 62.32816 -29.65836 39454 ft 525 kts 99°
2026-05-08 21:55 62.31157 -29.50642 39428 ft 520 kts 97°
2026-05-08 21:56 62.28532 -29.28088 39435 ft 517 kts 98°
2026-05-08 21:56 62.26770 -29.13135 39441 ft 516 kts 98°
2026-05-08 21:57 62.25014 -28.98219 39442 ft 515 kts 98°
2026-05-08 21:57 62.23262 -28.83442 39447 ft 514 kts 98°
2026-05-08 21:58 62.21485 -28.68606 39471 ft 513 kts 99°
2026-05-08 21:58 62.19695 -28.53827 39446 ft 511 kts 99°
2026-05-08 21:59 62.17896 -28.39124 39445 ft 510 kts 99°
2026-05-08 21:59 62.16088 -28.24486 39451 ft 508 kts 99°
2026-05-08 22:00 62.14268 -28.09890 39448 ft 508 kts 99°
2026-05-08 22:00 62.12435 -27.95335 39461 ft 507 kts 99°
2026-05-08 22:01 62.10588 -27.80801 39453 ft 507 kts 99°
2026-05-08 22:01 62.08726 -27.66286 39453 ft 508 kts 99°
2026-05-08 22:02 62.06846 -27.51775 39457 ft 507 kts 99°
2026-05-08 22:02 62.04953 -27.37288 39449 ft 507 kts 99°
2026-05-08 22:03 62.03043 -27.22807 39456 ft 508 kts 100°
2026-05-08 22:03 62.01119 -27.08340 39450 ft 508 kts 100°
2026-05-08 22:04 61.98600 -26.94216 39439 ft 518 kts 115°
2026-05-08 22:04 61.94978 -26.81076 39452 ft 520 kts 117°
2026-05-08 22:05 61.91240 -26.67932 39474 ft 520 kts 117°
2026-05-08 22:05 61.87532 -26.54751 39459 ft 520 kts 117°
2026-05-08 22:06 61.83849 -26.41559 39452 ft 520 kts 116°
2026-05-08 22:06 61.80168 -26.28405 39463 ft 519 kts 116°
2026-05-08 22:07 61.76475 -26.15288 39450 ft 519 kts 116°
2026-05-08 22:07 61.72772 -26.02223 39458 ft 518 kts 117°
2026-05-08 22:08 61.69058 -25.89203 39455 ft 518 kts 117°
2026-05-08 22:08 61.65333 -25.76214 39455 ft 518 kts 117°
2026-05-08 22:09 61.61597 -25.63263 39459 ft 518 kts 117°
2026-05-08 22:09 61.57853 -25.50357 39486 ft 518 kts 117°
2026-05-08 22:10 61.54092 -25.37466 39469 ft 517 kts 117°
2026-05-08 22:10 61.50328 -25.24637 39458 ft 517 kts 117°
2026-05-08 22:11 61.46549 -25.11832 39461 ft 517 kts 117°
2026-05-08 22:11 61.42763 -24.99069 39463 ft 516 kts 118°
2026-05-08 22:12 61.38970 -24.86358 39463 ft 516 kts 118°
2026-05-08 22:12 61.35160 -24.73660 39463 ft 516 kts 118°
2026-05-08 22:13 61.31346 -24.61015 39464 ft 516 kts 118°
2026-05-08 22:13 61.27520 -24.48403 39466 ft 516 kts 118°
2026-05-08 22:14 61.23680 -24.35815 39486 ft 516 kts 118°
2026-05-08 22:14 61.19827 -24.23250 39473 ft 515 kts 118°
2026-05-08 22:15 61.15995 -24.10826 39457 ft 515 kts 118°
2026-05-08 22:15 61.12106 -23.98284 39469 ft 514 kts 118°
2026-05-08 22:16 61.08261 -23.85948 39461 ft 514 kts 118°
2026-05-08 22:16 61.04380 -23.73565 39461 ft 513 kts 119°
2026-05-08 22:17 61.00491 -23.61223 39476 ft 513 kts 119°
2026-05-08 22:17 60.96597 -23.48929 39449 ft 512 kts 119°
2026-05-08 22:18 60.92693 -23.36669 39467 ft 512 kts 119°
2026-05-08 22:18 60.88782 -23.24453 39492 ft 512 kts 119°
2026-05-08 22:19 60.84859 -23.12264 39473 ft 512 kts 119°
2026-05-08 22:19 60.80927 -23.00112 39469 ft 511 kts 120°
2026-05-08 22:20 60.76993 -22.88015 39463 ft 510 kts 120°
2026-05-08 22:20 60.73051 -22.75959 39466 ft 510 kts 120°
2026-05-08 22:21 60.69100 -22.63937 39469 ft 509 kts 120°
2026-05-08 22:21 60.65142 -22.51955 39461 ft 509 kts 120°
2026-05-08 22:22 60.61174 -22.40004 39470 ft 509 kts 120°
2026-05-08 22:22 60.57197 -22.28088 39465 ft 509 kts 120°
2026-05-08 22:23 60.53209 -22.16201 39488 ft 509 kts 121°
2026-05-08 22:23 60.49236 -22.04416 39467 ft 509 kts 121°
2026-05-08 22:24 60.45227 -21.92588 39464 ft 509 kts 121°
2026-05-08 22:24 60.41214 -21.80806 39469 ft 508 kts 121°
2026-05-08 22:25 60.37194 -21.69063 39456 ft 508 kts 121°
2026-05-08 22:25 60.33165 -21.57353 39457 ft 507 kts 121°
2026-05-08 22:26 60.29130 -21.45685 39461 ft 507 kts 121°
2026-05-08 22:26 60.25086 -21.34048 39457 ft 507 kts 121°
2026-05-08 22:27 60.21030 -21.22435 39476 ft 507 kts 121°
2026-05-08 22:27 60.16965 -21.10854 39458 ft 507 kts 122°
2026-05-08 22:28 60.12894 -20.99316 39456 ft 506 kts 122°
2026-05-08 22:28 60.08817 -20.87815 39452 ft 506 kts 122°
2026-05-08 22:29 60.04734 -20.76353 39450 ft 506 kts 122°
2026-05-08 22:29 60.00645 -20.64929 39446 ft 505 kts 122°
2026-05-08 22:30 59.96539 -20.53517 39451 ft 506 kts 122°
2026-05-08 22:30 59.92427 -20.42141 39459 ft 506 kts 122°
2026-05-08 22:31 59.88301 -20.30783 39457 ft 506 kts 122°
2026-05-08 22:31 59.84165 -20.19452 39452 ft 506 kts 122°
2026-05-08 22:32 59.80019 -20.08148 39436 ft 506 kts 123°
2026-05-08 22:32 59.75892 -19.96952 39446 ft 505 kts 123°
2026-05-08 22:33 59.71735 -19.85725 39439 ft 505 kts 123°
2026-05-08 22:33 59.67572 -19.74538 39448 ft 504 kts 123°
2026-05-08 22:34 59.63403 -19.63388 39446 ft 504 kts 123°
2026-05-08 22:34 59.59225 -19.52266 39440 ft 504 kts 123°
2026-05-08 22:35 59.55044 -19.41187 39446 ft 504 kts 123°
2026-05-08 22:35 59.50852 -19.30132 39435 ft 503 kts 123°
2026-05-08 22:36 59.46654 -19.19115 39436 ft 503 kts 123°
2026-05-08 22:36 59.42448 -19.08126 39463 ft 503 kts 124°
2026-05-08 22:37 59.38234 -18.97168 39444 ft 503 kts 124°
2026-05-08 22:37 59.34013 -18.86243 39437 ft 502 kts 124°
2026-05-08 22:38 59.29789 -18.75362 39431 ft 501 kts 124°
2026-05-08 22:38 59.25568 -18.64540 39433 ft 500 kts 124°
2026-05-08 22:39 59.21341 -18.53749 39432 ft 500 kts 124°
2026-05-08 22:39 59.17109 -18.42994 39427 ft 500 kts 124°
2026-05-08 22:40 59.12869 -18.32268 39429 ft 499 kts 125°
2026-05-08 22:40 59.08620 -18.21568 39422 ft 499 kts 125°
2026-05-08 22:41 59.04369 -18.10904 39438 ft 499 kts 125°
2026-05-08 22:41 59.00228 -18.00093 39412 ft 497 kts 118°
2026-05-08 22:42 58.97787 -17.90113 39432 ft 491 kts 108°
2026-05-08 22:42 58.94889 -17.75781 39411 ft 492 kts 108°
2026-05-08 22:43 58.92372 -17.63466 39406 ft 492 kts 108°
2026-05-08 22:43 58.89807 -17.51200 39406 ft 492 kts 109°
2026-05-08 22:44 58.87652 -17.41028 39409 ft 492 kts 109°
2026-05-08 22:44 58.85046 -17.28809 39423 ft 492 kts 109°
2026-05-08 22:45 58.82428 -17.16594 39403 ft 492 kts 109°
2026-05-08 22:45 58.79800 -17.04401 39398 ft 492 kts 109°
2026-05-08 22:46 58.77161 -16.92224 39402 ft 492 kts 109°
2026-05-08 22:46 58.74511 -16.80069 39397 ft 492 kts 110°
2026-05-08 22:47 58.71854 -16.67952 39395 ft 491 kts 110°
2026-05-08 22:47 58.69183 -16.55845 39402 ft 491 kts 110°
2026-05-08 22:48 58.66504 -16.43767 39399 ft 492 kts 110°
2026-05-08 22:48 58.63811 -16.31695 39394 ft 492 kts 110°
2026-05-08 22:49 58.61108 -16.19650 39385 ft 491 kts 111°
2026-05-08 22:49 58.57033 -16.01618 39385 ft 491 kts 111°
2026-05-08 22:50 58.54319 -15.89696 39381 ft 491 kts 111°
2026-05-08 22:50 58.51579 -15.77725 39404 ft 491 kts 111°
2026-05-08 22:51 58.48822 -15.65746 39388 ft 492 kts 111°
2026-05-08 22:51 58.46054 -15.53785 39376 ft 492 kts 111°
2026-05-08 22:52 58.43271 -15.41833 39381 ft 493 kts 112°
2026-05-08 22:52 58.40479 -15.29902 39369 ft 493 kts 112°
2026-05-08 22:53 58.37675 -15.17989 39365 ft 493 kts 112°
2026-05-08 22:53 58.34858 -15.06090 39368 ft 493 kts 112°
2026-05-08 22:54 58.32030 -14.94202 39380 ft 493 kts 112°
2026-05-08 22:54 58.29187 -14.82324 39366 ft 494 kts 113°
2026-05-08 22:55 58.26334 -14.70466 39370 ft 494 kts 113°
2026-05-08 22:55 58.23468 -14.58619 39359 ft 494 kts 113°
2026-05-08 22:56 58.20592 -14.46794 39355 ft 494 kts 113°
2026-05-08 22:56 58.17705 -14.34989 39358 ft 493 kts 114°
2026-05-08 22:57 58.14809 -14.23210 39371 ft 493 kts 114°
2026-05-08 22:57 58.11920 -14.11521 39352 ft 493 kts 114°
2026-05-08 22:58 58.09001 -13.99778 39353 ft 493 kts 114°
2026-05-08 22:58 58.06054 -13.87981 39353 ft 493 kts 114°
2026-05-08 22:59 58.03114 -13.76279 39351 ft 493 kts 114°
2026-05-08 22:59 58.00187 -13.64683 39350 ft 493 kts 114°
2026-05-08 23:00 57.97226 -13.53021 39361 ft 493 kts 115°
2026-05-08 23:00 57.94256 -13.41379 39354 ft 493 kts 115°
2026-05-08 23:01 57.91270 -13.29738 39352 ft 494 kts 115°
2026-05-08 23:01 57.88276 -13.18127 39349 ft 494 kts 115°
2026-05-08 23:02 57.85272 -13.06537 39351 ft 493 kts 115°
2026-05-08 23:02 57.82256 -12.94963 39348 ft 493 kts 115°
2026-05-08 23:03 57.79234 -12.83421 39346 ft 493 kts 116°
2026-05-08 23:03 57.76202 -12.71903 39348 ft 493 kts 116°
2026-05-08 23:04 57.73159 -12.60402 39348 ft 493 kts 116°
2026-05-08 23:04 57.70108 -12.48928 39348 ft 493 kts 116°
2026-05-08 23:05 57.67046 -12.37473 39347 ft 493 kts 116°
2026-05-08 23:05 57.63974 -12.26038 39348 ft 493 kts 116°
2026-05-08 23:06 57.60892 -12.14624 39346 ft 493 kts 116°
2026-05-08 23:06 57.57801 -12.03238 39342 ft 492 kts 117°
2026-05-08 23:07 57.54699 -11.91871 39344 ft 492 kts 117°
2026-05-08 23:07 57.51592 -11.80523 39348 ft 492 kts 117°
2026-05-08 23:08 57.48474 -11.69201 39348 ft 492 kts 117°
2026-05-08 23:08 57.45346 -11.57902 39348 ft 492 kts 117°
2026-05-08 23:09 57.42207 -11.46617 39345 ft 492 kts 117°
2026-05-08 23:09 57.39062 -11.35354 39351 ft 492 kts 118°
2026-05-08 23:10 57.35906 -11.24116 39332 ft 491 kts 118°
2026-05-08 23:10 57.32738 -11.12905 39335 ft 491 kts 118°
2026-05-08 23:11 57.29563 -11.01718 39343 ft 491 kts 118°
2026-05-08 23:11 57.26401 -10.90625 39331 ft 491 kts 118°
2026-05-08 23:12 57.23208 -10.79477 39332 ft 491 kts 118°
2026-05-08 23:12 57.20005 -10.68348 39339 ft 491 kts 119°
2026-05-08 23:13 57.16790 -10.57230 39330 ft 491 kts 119°
2026-05-08 23:13 57.13569 -10.46143 39324 ft 491 kts 119°
2026-05-08 23:14 57.10335 -10.35065 39327 ft 491 kts 119°
2026-05-08 23:14 57.07092 -10.24009 39323 ft 491 kts 120°
2026-05-08 23:15 57.03841 -10.12971 39321 ft 491 kts 120°
2026-05-08 23:15 57.00579 -10.01953 39323 ft 491 kts 120°
2026-05-08 23:16 56.96847 -9.91512 39323 ft 489 kts 128°
2026-05-08 23:16 56.92774 -9.81530 39325 ft 489 kts 129°
2026-05-08 23:17 56.88692 -9.71567 39322 ft 489 kts 129°
2026-05-08 23:17 56.84643 -9.61563 39312 ft 490 kts 129°
2026-05-08 23:18 56.80632 -9.51612 39316 ft 490 kts 128°
2026-05-08 23:18 56.76590 -9.41612 39316 ft 490 kts 129°
2026-05-08 23:19 56.72540 -9.31639 39307 ft 490 kts 129°
2026-05-08 23:19 56.68452 -9.21620 39314 ft 490 kts 129°
2026-05-08 23:20 56.64410 -9.11757 39316 ft 490 kts 130°
2026-05-08 23:20 56.60332 -9.01845 39310 ft 490 kts 130°
2026-05-08 23:21 56.56245 -8.91953 39307 ft 490 kts 130°
2026-05-08 23:21 56.52151 -8.82082 39282 ft 490 kts 130°
2026-05-08 23:22 56.48053 -8.72243 39294 ft 489 kts 130°
2026-05-08 23:22 56.43951 -8.62433 39302 ft 489 kts 130°
2026-05-08 23:23 56.39840 -8.52644 39299 ft 489 kts 131°
2026-05-08 23:23 56.35724 -8.42879 39299 ft 489 kts 131°
2026-05-08 23:24 56.31599 -8.33135 39295 ft 489 kts 131°
2026-05-08 23:24 56.27470 -8.23418 39288 ft 488 kts 131°
2026-05-08 23:25 56.23337 -8.13732 39286 ft 488 kts 131°
2026-05-08 23:25 56.19203 -8.04080 39291 ft 487 kts 131°
2026-05-08 23:26 56.15061 -7.94449 39283 ft 487 kts 131°
2026-05-08 23:26 56.10912 -7.84842 39286 ft 487 kts 132°
2026-05-08 23:27 56.06749 -7.75238 39287 ft 487 kts 132°
2026-05-08 23:27 56.02591 -7.65683 39278 ft 487 kts 132°
2026-05-08 23:28 55.98424 -7.56148 39280 ft 487 kts 132°
2026-05-08 23:28 55.94251 -7.46634 39278 ft 487 kts 132°
2026-05-08 23:29 55.90071 -7.37142 39280 ft 487 kts 132°
2026-05-08 23:29 55.85884 -7.27669 39272 ft 486 kts 133°
2026-05-08 23:30 55.81692 -7.18222 39273 ft 486 kts 133°
2026-05-08 23:30 55.77493 -7.08797 39272 ft 486 kts 133°
2026-05-08 23:31 55.73314 -6.99453 39272 ft 486 kts 133°
2026-05-08 23:31 55.69102 -6.90069 39264 ft 486 kts 133°
2026-05-08 23:32 55.64883 -6.80706 39266 ft 486 kts 133°
2026-05-08 23:32 55.60659 -6.71362 39267 ft 486 kts 133°
2026-05-08 23:33 55.56430 -6.62086 39248 ft 482 kts 135°
2026-05-08 23:33 55.52752 -6.54634 39251 ft 478 kts 137°
2026-05-08 23:34 55.48299 -6.45956 39247 ft 476 kts 137°
2026-05-08 23:34 55.43897 -6.37363 39253 ft 475 kts 137°
2026-05-08 23:35 55.39488 -6.28701 39246 ft 475 kts 137°
2026-05-08 23:35 55.35087 -6.20052 39234 ft 474 kts 137°
2026-05-08 23:36 55.30695 -6.11445 39241 ft 473 kts 137°
2026-05-08 23:36 55.26303 -6.02872 39244 ft 472 kts 137°
2026-05-08 23:37 55.21901 -5.94315 39232 ft 472 kts 137°
2026-05-08 23:37 55.17499 -5.85787 39231 ft 472 kts 137°
2026-05-08 23:38 55.13090 -5.77277 39234 ft 472 kts 137°
2026-05-08 23:38 55.08674 -5.68782 39224 ft 472 kts 137°
2026-05-08 23:39 55.04252 -5.60306 39231 ft 472 kts 137°
2026-05-08 23:39 54.99820 -5.51843 39232 ft 473 kts 137°
2026-05-08 23:40 54.95377 -5.43386 39217 ft 473 kts 137°
2026-05-08 23:40 54.90927 -5.34947 39223 ft 473 kts 137°
2026-05-08 23:41 54.86499 -5.26578 39216 ft 473 kts 137°
2026-05-08 23:41 54.82038 -5.18176 39199 ft 474 kts 137°
2026-05-08 23:42 54.77568 -5.09787 39210 ft 474 kts 137°
2026-05-08 23:42 54.73086 -5.01406 39209 ft 474 kts 137°
2026-05-08 23:43 54.68599 -4.93044 39199 ft 474 kts 137°
2026-05-08 23:43 54.64109 -4.84705 39172 ft 474 kts 137°
2026-05-08 23:44 54.59616 -4.76389 39198 ft 474 kts 137°
2026-05-08 23:44 54.55118 -4.68093 39194 ft 473 kts 137°
2026-05-08 23:45 54.50617 -4.59822 39194 ft 474 kts 137°
2026-05-08 23:45 54.46109 -4.51565 39193 ft 473 kts 137°
2026-05-08 23:46 54.41597 -4.43329 39165 ft 473 kts 137°
2026-05-08 23:46 54.37082 -4.35116 39183 ft 472 kts 137°
2026-05-08 23:47 54.32575 -4.26946 39181 ft 472 kts 137°
2026-05-08 23:47 54.28095 -4.18853 39177 ft 471 kts 137°
2026-05-08 23:48 54.23587 -4.10736 39175 ft 470 kts 138°
2026-05-08 23:48 54.19078 -4.02645 39175 ft 470 kts 138°
2026-05-08 23:49 54.14565 -3.94572 39164 ft 469 kts 138°
2026-05-08 23:49 54.10064 -3.86551 39166 ft 468 kts 138°
2026-05-08 23:50 54.05565 -3.78558 39166 ft 467 kts 138°
2026-05-08 23:50 54.01069 -3.70596 39166 ft 466 kts 138°
2026-05-08 23:51 53.96573 -3.62660 39156 ft 466 kts 138°
2026-05-08 23:51 53.92081 -3.54757 39150 ft 465 kts 138°
2026-05-08 23:52 53.88193 -3.45941 39158 ft 472 kts 122°
2026-05-08 23:52 53.85708 -3.35561 39159 ft 477 kts 113°
2026-05-08 23:53 53.83483 -3.24974 39151 ft 477 kts 113°
2026-05-08 23:53 53.81217 -3.14419 39151 ft 477 kts 114°
2026-05-08 23:54 53.78900 -3.03894 39140 ft 478 kts 114°
2026-05-08 23:55 53.75396 -2.88179 39142 ft 479 kts 114°
2026-05-08 23:55 53.73036 -2.77652 39141 ft 479 kts 114°
2026-05-08 23:56 53.70667 -2.67128 39121 ft 480 kts 114°
2026-05-08 23:56 53.68289 -2.56614 39123 ft 480 kts 114°
2026-05-08 23:57 53.65901 -2.46112 39139 ft 480 kts 114°
2026-05-08 23:57 53.63501 -2.35608 39141 ft 480 kts 114°
2026-05-08 23:58 53.61092 -2.25104 39145 ft 481 kts 114°
2026-05-08 23:58 53.58661 -2.14617 39140 ft 481 kts 115°
2026-05-08 23:59 53.56201 -2.04149 39136 ft 481 kts 115°
2026-05-08 23:59 53.53742 -1.93710 39145 ft 480 kts 115°
2026-05-09 00:00 53.51497 -1.83142 39149 ft 481 kts 109°
2026-05-09 00:00 53.49700 -1.72311 39144 ft 481 kts 108°
2026-05-09 00:01 53.47868 -1.61591 39144 ft 480 kts 109°
2026-05-09 00:01 53.45947 -1.50868 39143 ft 479 kts 109°
2026-05-09 00:02 53.44009 -1.40175 39141 ft 478 kts 109°
2026-05-09 00:02 53.42075 -1.29515 39147 ft 478 kts 110°
2026-05-09 00:03 53.40185 -1.18842 39145 ft 477 kts 109°
2026-05-09 00:03 53.38252 -1.08220 39146 ft 476 kts 110°
2026-05-09 00:04 53.36281 -0.97625 39142 ft 477 kts 110°
2026-05-09 00:04 53.34308 -0.87008 39154 ft 478 kts 110°
2026-05-09 00:05 53.32330 -0.76374 39161 ft 479 kts 110°
2026-05-09 00:05 53.30334 -0.65721 39156 ft 480 kts 110°
2026-05-09 00:06 53.28323 -0.55068 39161 ft 481 kts 110°
2026-05-09 00:06 53.26304 -0.44421 39158 ft 481 kts 110°
2026-05-09 00:07 53.24302 -0.33838 39149 ft 481 kts 110°
2026-05-09 00:07 53.22264 -0.23148 39154 ft 480 kts 110°
2026-05-09 00:08 53.20229 -0.12628 39159 ft 480 kts 110°
2026-05-09 00:08 53.18174 -0.02040 39159 ft 480 kts 110°
2026-05-09 00:09 53.16119 0.08536 39157 ft 480 kts 110°
2026-05-09 00:09 53.14059 0.19107 39165 ft 480 kts 110°
2026-05-09 00:10 53.11991 0.29665 39166 ft 480 kts 110°
2026-05-09 00:10 53.09911 0.40221 39167 ft 480 kts 110°
2026-05-09 00:11 53.07823 0.50761 39172 ft 480 kts 110°
2026-05-09 00:11 53.05726 0.61288 39173 ft 480 kts 110°
2026-05-09 00:12 53.03617 0.71828 39181 ft 481 kts 110°
2026-05-09 00:12 53.01496 0.82361 39177 ft 481 kts 110°
2026-05-09 00:13 52.99366 0.92890 39170 ft 481 kts 110°
2026-05-09 00:13 52.97382 1.03485 39170 ft 482 kts 103°
2026-05-09 00:14 52.96103 1.14403 39182 ft 483 kts 101°
2026-05-09 00:14 52.94924 1.25370 39178 ft 483 kts 101°
2026-05-09 00:15 52.93686 1.36318 39175 ft 483 kts 102°
2026-05-09 00:15 52.92398 1.47250 39181 ft 483 kts 102°
2026-05-09 00:16 52.91186 1.57367 39179 ft 483 kts 102°
2026-05-09 00:16 52.90028 1.66963 39179 ft 483 kts 102°
2026-05-09 00:17 52.88705 1.77880 39179 ft 483 kts 102°
2026-05-09 00:17 52.87386 1.88692 39180 ft 484 kts 102°
2026-05-09 00:18 52.86042 1.99607 39180 ft 484 kts 102°
2026-05-09 00:18 52.84723 2.10240 39181 ft 483 kts 102°
2026-05-09 00:19 52.83362 2.21123 39173 ft 483 kts 102°
2026-05-09 00:19 52.81991 2.31999 39174 ft 483 kts 102°
2026-05-09 00:20 52.80612 2.42866 39169 ft 483 kts 102°
2026-05-09 00:20 52.79221 2.53723 39172 ft 483 kts 102°
2026-05-09 00:21 52.77816 2.64563 39171 ft 482 kts 102°
2026-05-09 00:21 52.76405 2.75384 39171 ft 482 kts 102°
2026-05-09 00:22 52.74996 2.86213 39170 ft 482 kts 102°
2026-05-09 00:22 52.73606 2.97033 39171 ft 482 kts 102°
2026-05-09 00:23 52.71684 3.07598 39161 ft 481 kts 110°
2026-05-09 00:23 52.69344 3.17840 39164 ft 480 kts 111°
2026-05-09 00:24 52.66974 3.28135 39163 ft 480 kts 111°
2026-05-09 00:24 52.64646 3.38444 39157 ft 480 kts 110°
2026-05-09 00:25 52.62335 3.48760 39168 ft 480 kts 110°
2026-05-09 00:25 52.60019 3.59071 39161 ft 481 kts 110°
2026-05-09 00:26 52.57691 3.69377 39159 ft 481 kts 111°
2026-05-09 00:26 52.55747 3.77937 39158 ft 481 kts 111°
2026-05-09 00:27 52.53397 3.88234 39156 ft 481 kts 111°
2026-05-09 00:27 52.51041 3.98510 39161 ft 481 kts 111°
2026-05-09 00:28 52.48670 4.08798 39153 ft 482 kts 111°
2026-05-09 00:28 52.46287 4.19092 39161 ft 483 kts 111°
2026-05-09 00:29 52.43893 4.29384 39154 ft 483 kts 111°
2026-05-09 00:29 52.41489 4.39667 39156 ft 484 kts 111°
2026-05-09 00:30 52.39075 4.49946 39152 ft 484 kts 111°
2026-05-09 00:30 52.36648 4.60230 39160 ft 484 kts 111°
2026-05-09 00:31 52.34215 4.70490 39159 ft 484 kts 111°
2026-05-09 00:31 52.31771 4.80745 39156 ft 484 kts 111°
2026-05-09 00:32 52.29322 4.90977 39159 ft 484 kts 111°
2026-05-09 00:32 52.26874 5.01156 39152 ft 484 kts 111°
2026-05-09 00:33 52.24387 5.11447 39155 ft 485 kts 111°
2026-05-09 00:33 52.21905 5.21670 39156 ft 485 kts 111°
2026-05-09 00:34 52.19428 5.31827 39154 ft 485 kts 111°
2026-05-09 00:34 52.16926 5.42038 39160 ft 485 kts 112°
2026-05-09 00:35 52.14412 5.52249 39146 ft 486 kts 111°
2026-05-09 00:35 52.11890 5.62450 39156 ft 486 kts 111°
2026-05-09 00:36 52.09360 5.72643 39159 ft 486 kts 112°
2026-05-09 00:36 52.06463 5.82541 39156 ft 486 kts 124°
2026-05-09 00:37 52.02087 5.90847 39173 ft 484 kts 136°
2026-05-09 00:37 51.97252 5.98469 39154 ft 485 kts 136°
2026-05-09 00:38 51.92412 6.06094 39152 ft 485 kts 136°
2026-05-09 00:38 51.87597 6.13761 39146 ft 485 kts 136°
2026-05-09 00:39 51.82798 6.21426 39158 ft 485 kts 136°
2026-05-09 00:39 51.77994 6.29081 39155 ft 485 kts 136°
2026-05-09 00:40 51.73179 6.36726 39161 ft 486 kts 136°
2026-05-09 00:40 51.68355 6.44357 39151 ft 486 kts 136°
2026-05-09 00:41 51.61113 6.55768 39141 ft 485 kts 136°
2026-05-09 00:41 51.56282 6.63349 39148 ft 485 kts 136°
2026-05-09 00:42 51.51448 6.70913 39147 ft 485 kts 136°
2026-05-09 00:42 51.46606 6.78464 39156 ft 485 kts 136°
2026-05-09 00:43 51.41765 6.85990 39143 ft 485 kts 136°
2026-05-09 00:43 51.36953 6.93449 39157 ft 484 kts 136°
2026-05-09 00:44 51.32107 7.00936 39156 ft 484 kts 136°
2026-05-09 00:44 51.27265 7.08396 39155 ft 484 kts 136°
2026-05-09 00:45 51.22413 7.15847 39156 ft 484 kts 137°
2026-05-09 00:45 51.17567 7.23266 39155 ft 482 kts 137°
2026-05-09 00:46 51.12728 7.30653 39153 ft 481 kts 137°
2026-05-09 00:46 51.07892 7.38011 39151 ft 481 kts 137°
2026-05-09 00:47 51.03059 7.45344 39160 ft 480 kts 137°
2026-05-09 00:47 50.98224 7.52656 39161 ft 480 kts 137°
2026-05-09 00:48 50.93389 7.59947 39169 ft 480 kts 137°
2026-05-09 00:48 50.88548 7.67235 39158 ft 480 kts 137°
2026-05-09 00:49 50.83700 7.74497 39155 ft 480 kts 137°
2026-05-09 00:49 50.78898 7.81834 39142 ft 480 kts 136°
2026-05-09 00:50 50.74129 7.89226 39138 ft 480 kts 136°
2026-05-09 00:50 50.69356 7.96599 39131 ft 480 kts 137°
2026-05-09 00:51 50.64568 8.03949 39130 ft 481 kts 137°
2026-05-09 00:51 50.59767 8.11288 39174 ft 481 kts 137°
2026-05-09 00:52 50.54963 8.18608 39161 ft 481 kts 137°
2026-05-09 00:52 50.50182 8.25871 39167 ft 481 kts 137°
2026-05-09 00:53 50.45368 8.33163 39167 ft 481 kts 137°
2026-05-09 00:53 50.40539 8.40457 39157 ft 482 kts 137°
2026-05-09 00:54 50.35703 8.47738 39155 ft 482 kts 137°
2026-05-09 00:54 50.30862 8.55007 39139 ft 482 kts 137°
2026-05-09 00:55 50.26016 8.62261 39140 ft 483 kts 137°
2026-05-09 00:55 50.21157 8.69514 39133 ft 483 kts 138°
2026-05-09 00:56 50.16294 8.76750 39135 ft 483 kts 138°
2026-05-09 00:56 50.11424 8.83975 39133 ft 483 kts 138°
2026-05-09 00:57 50.06551 8.91184 39127 ft 484 kts 138°
2026-05-09 00:57 50.01665 8.98391 39131 ft 484 kts 138°
2026-05-09 00:58 49.96776 9.05580 39129 ft 484 kts 138°
2026-05-09 00:58 49.91880 9.12760 39134 ft 484 kts 138°
2026-05-09 00:59 49.86976 9.19929 39130 ft 485 kts 138°
2026-05-09 00:59 49.82067 9.27086 39118 ft 485 kts 138°
2026-05-09 01:00 49.77155 9.34225 39125 ft 485 kts 138°
2026-05-09 01:00 49.72262 9.41315 39130 ft 485 kts 138°
2026-05-09 01:01 49.67331 9.48441 39137 ft 485 kts 139°
2026-05-09 01:01 49.62396 9.55552 39133 ft 485 kts 139°
2026-05-09 01:02 49.57461 9.62642 39131 ft 485 kts 139°
2026-05-09 01:02 49.52524 9.69715 39129 ft 485 kts 139°
2026-05-09 01:03 49.47579 9.76778 39131 ft 485 kts 139°
2026-05-09 01:03 49.42625 9.83834 39131 ft 486 kts 139°
2026-05-09 01:04 49.37665 9.90878 39132 ft 486 kts 139°
2026-05-09 01:04 49.35184 9.94394 38993 ft 487 kts 139°
2026-05-09 01:04 49.32702 9.97907 38475 ft 483 kts 139°
2026-05-09 01:05 49.30223 10.01411 37302 ft 489 kts 139°
2026-05-09 01:05 49.27723 10.04938 36584 ft 486 kts 139°
2026-05-09 01:05 49.22789 10.11888 35170 ft 480 kts 139°
2026-05-09 01:06 49.20328 10.15346 34358 ft 481 kts 139°
2026-05-09 01:06 49.17860 10.18811 33336 ft 482 kts 139°
2026-05-09 01:06 49.15390 10.22271 32393 ft 480 kts 139°
2026-05-09 01:06 49.12988 10.25795 31711 ft 475 kts 136°
2026-05-09 01:07 49.10724 10.29409 30742 ft 474 kts 135°
2026-05-09 01:07 49.08477 10.33098 29632 ft 475 kts 135°
2026-05-09 01:07 49.06228 10.36788 28374 ft 475 kts 135°
2026-05-09 01:07 49.03984 10.40434 27599 ft 467 kts 135°
2026-05-09 01:08 49.01767 10.44000 26794 ft 460 kts 136°
2026-05-09 01:08 48.99571 10.47488 26028 ft 453 kts 136°
2026-05-09 01:08 48.97369 10.50868 25274 ft 446 kts 137°
2026-05-09 01:08 48.95177 10.54172 24500 ft 441 kts 137°
2026-05-09 01:09 48.93005 10.57426 23729 ft 436 kts 137°
2026-05-09 01:09 48.90856 10.60648 22821 ft 431 kts 137°
2026-05-09 01:09 48.88738 10.63833 22028 ft 425 kts 137°
2026-05-09 01:09 48.86652 10.66972 21246 ft 419 kts 137°
2026-05-09 01:10 48.84591 10.70075 20463 ft 415 kts 137°
2026-05-09 01:10 48.82578 10.73101 19709 ft 411 kts 137°
2026-05-09 01:10 48.80558 10.76136 18953 ft 407 kts 137°
2026-05-09 01:10 48.78554 10.79144 18170 ft 404 kts 137°
2026-05-09 01:11 48.76564 10.82127 17331 ft 400 kts 137°
2026-05-09 01:11 48.74595 10.85076 16558 ft 396 kts 137°
2026-05-09 01:11 48.72643 10.87996 15780 ft 392 kts 137°
2026-05-09 01:11 48.70711 10.90884 15040 ft 389 kts 137°
2026-05-09 01:12 48.68793 10.93748 14307 ft 386 kts 137°
2026-05-09 01:12 48.66890 10.96585 13550 ft 383 kts 137°
2026-05-09 01:12 48.65000 10.99399 12762 ft 380 kts 137°
2026-05-09 01:12 48.63126 11.02188 11996 ft 376 kts 137°
2026-05-09 01:13 48.61266 11.04952 11243 ft 373 kts 137°
2026-05-09 01:13 48.59429 11.07682 10783 ft 363 kts 137°
2026-05-09 01:13 48.57675 11.10287 10621 ft 345 kts 137°
2026-05-09 01:13 48.56003 11.12765 10464 ft 329 kts 137°
2026-05-09 01:14 48.54407 11.15128 10324 ft 315 kts 137°
2026-05-09 01:14 48.52897 11.17428 10190 ft 302 kts 130°
2026-05-09 01:14 48.51980 11.20177 10091 ft 290 kts 104°
2026-05-09 01:14 48.51826 11.23149 9856 ft 284 kts 83°
2026-05-09 01:15 48.52193 11.26061 9649 ft 282 kts 77°
2026-05-09 01:15 48.52628 11.28944 9439 ft 283 kts 77°
2026-05-09 01:15 48.52916 11.30863 9297 ft 284 kts 77°
2026-05-09 01:15 48.53342 11.33769 9086 ft 284 kts 77°
2026-05-09 01:16 48.53759 11.36660 8917 ft 279 kts 77°
2026-05-09 01:16 48.54162 11.39486 8915 ft 275 kts 77°
2026-05-09 01:16 48.54564 11.42314 8912 ft 277 kts 77°
2026-05-09 01:17 48.55512 11.49008 8899 ft 282 kts 77°
2026-05-09 01:17 48.55788 11.50960 8890 ft 281 kts 77°
2026-05-09 01:17 48.56195 11.53846 8895 ft 280 kts 77°
2026-05-09 01:17 48.56602 11.56742 8695 ft 285 kts 77°
2026-05-09 01:18 48.56860 11.59694 8407 ft 283 kts 96°
2026-05-09 01:18 48.56154 11.62380 8150 ft 275 kts 130°
2026-05-09 01:18 48.54696 11.64162 7916 ft 270 kts 155°
2026-05-09 01:18 48.52900 11.64929 7672 ft 269 kts 178°
2026-05-09 01:19 48.51070 11.64573 7420 ft 267 kts 201°
2026-05-09 01:19 48.49513 11.63106 7177 ft 264 kts 226°
2026-05-09 01:19 48.48470 11.60857 6927 ft 263 kts 248°
2026-05-09 01:19 48.47898 11.58237 6705 ft 263 kts 254°
2026-05-09 01:20 48.47409 11.55624 6460 ft 263 kts 255°
2026-05-09 01:20 48.46923 11.52963 6203 ft 263 kts 255°
2026-05-09 01:20 48.46436 11.50301 5947 ft 263 kts 254°
2026-05-09 01:20 48.45940 11.47622 5705 ft 272 kts 253°
2026-05-09 01:21 48.45094 11.45061 5456 ft 274 kts 225°
2026-05-09 01:21 48.43522 11.43678 5190 ft 259 kts 191°
2026-05-09 01:21 48.41786 11.43633 5048 ft 241 kts 172°
2026-05-09 01:21 48.40223 11.44210 4988 ft 222 kts 162°
2026-05-09 01:22 48.38816 11.44897 4984 ft 202 kts 162°
2026-05-09 01:22 48.37552 11.45512 4967 ft 181 kts 162°
2026-05-09 01:22 48.36396 11.46063 4985 ft 170 kts 162°
2026-05-09 01:22 48.35293 11.46582 4992 ft 163 kts 162°
2026-05-09 01:23 48.34214 11.47085 4995 ft 162 kts 162°
2026-05-09 01:23 48.33135 11.47594 4992 ft 162 kts 160°
2026-05-09 01:23 48.32277 11.48616 4986 ft 159 kts 117°
2026-05-09 01:23 48.32161 11.50250 5029 ft 164 kts 84°
2026-05-09 01:24 48.32289 11.51988 4996 ft 168 kts 85°
2026-05-09 01:24 48.32417 11.53718 4986 ft 165 kts 84°
2026-05-09 01:24 48.32548 11.55469 4743 ft 173 kts 84°
2026-05-09 01:24 48.32677 11.57238 4447 ft 168 kts 85°
2026-05-09 01:25 48.32791 11.58999 3990 ft 170 kts 84°
2026-05-09 01:25 48.32917 11.60704 3594 ft 164 kts 84°
2026-05-09 01:25 48.33080 11.62381 3261 ft 154 kts 83°
2026-05-09 01:25 48.33191 11.63957 2894 ft 148 kts 84°
2026-05-09 01:26 48.33322 11.65389 2874 ft 129 kts 83°
2026-05-09 01:26 48.33424 11.66725 2875 ft 132 kts 86°
2026-05-09 01:26 48.33516 11.68095 2700 ft 131 kts 83°
2026-05-09 01:26 48.33636 11.69446 2477 ft 131 kts 83°
2026-05-09 01:27 48.33727 11.70840 2169 ft 137 kts 83°
2026-05-09 01:27 48.33859 11.72225 1922 ft 134 kts 83°
2026-05-09 01:27 48.33951 11.73600 1726 ft 132 kts 81°
2026-05-09 01:27 48.34055 11.74966 1562 ft 132 kts 83°
2026-05-09 01:28 48.34163 11.76314 1469 ft 117 kts 83°
2026-05-09 01:28 48.34241 11.77350 1467 ft 82 kts 84°
2026-05-09 01:28 48.34292 11.78025 1471 ft 48 kts 83°